Location: Camp Roosevelt
(41.7914°N, 81.1673°W)
Time: 08:25:26
(UTC+00:00)

USA 308 - Pass Details

Date: 29 October 2020
Orbit: 571 x 578 km, 54.0° (Epoch: 23 November)

Event Time Altitude Azimuth Distance (km) Brightness Sun altitude
Rises 23:31:37 0° 312° (NW) 2,786 7.1 -13.5°
Reaches altitude 10° 23:33:59 10° 319° (NW) 1,884 6.0 -13.9°
Maximum altitude 23:38:03 41° 31° (NNE) 831 3.4 -14.7°
Enters shadow 23:39:53 27° 83° (E) 1,126 3.8 -15.0°
